Other Surface Observations
Issued by NWS

Home | Current Version | Previous Version | Text Only | Print | Product List | Glossary On
Versions: 1 2 3 4 5 6 7 8 9 10 11 12 13 14 15 16 17 18 19 20 21 22 23 24 25 26 27 28 29 30 31 32 33 34 35 36 37 38 39 40 41 42 43 44 45 46 47 48 49 50
000
SXUS52 KTAE 192118
OSOTAE
OSOTAE
North Florida/South Alabama/Southwest Georgia Weather Roundup
National Weather Service Tallahassee Florida
400 PM EST SUN FEB 19 2017

Note: "fair" indicates few or no clouds below 12,000 feet with no
significant weather and/or obstructions to visibility.

!FLZ017-115-028-034-025-192200
...North Florida...

CITY           SKY/WX    TMP DP  RH WIND       PRES   REMARKS
TALLAHASSEE    MOSUNNY   79  53  40 NW7       30.02F
APALACHICOLA   SUNNY     71  66  84 S9        30.05S
PERRY          MOSUNNY   79  53  40 CALM      30.03F
CROSS CITY     SUNNY     81  54  39 N9        30.02F
JACKSONVILLE   MOSUNNY   79  53  40 NW9       30.02S
$$

!FLZ112-006-005-002-011-192200
...Florida Panhandle...

CITY           SKY/WX    TMP DP  RH WIND       PRES   REMARKS
MARIANNA       SUNNY     79  55  43 NW8       30.03S
BONIFAY        NOT AVBL
PANAMA CITY NW FAIR      76  61  59 S8        30.03S
TYNDALL AFB    SUNNY     73  62  68 W10       30.05R
TYND DRONE APT FAIR      71  64  79 W7        30.05R
DE FUNIAK SPR  FAIR      78  56  46 NW7       30.05S
EGLIN AFB      PTSUNNY   72  60  67 S12       30.04F
DESTIN         SUNNY     74  63  68 VRB5      30.05S
HURLBURT       SUNNY     71  47  41 S8        30.04F
CRESTVIEW      MOSUNNY   81  54  39 N8        30.05S HAZE
PENSACOLA      SUNNY     79  56  45 SE7       30.04S
$$

!ALZ063-066-192200
...South Alabama...

CITY           SKY/WX    TMP DP  RH WIND       PRES   REMARKS
DOTHAN         MOSUNNY   77  56  48 NW8       30.08R
OZARK CAIRNS   SUNNY     77  56  46 W10       30.04S
FT RUCKER HELI MOSUNNY   76  53  45 NW10      30.04S
RUCKER HELI 3  NOT AVBL
RUCKER HELI 2  FAIR      76  54  44 NW6       30.04R
FLORALA APT    MOSUNNY   79  54  41 VRB3      30.06S
ANDALUSIA      MOSUNNY   82  54  37 NW8       30.05S
TROY           SUNNY     76  53  44 NW13      30.07R
EUFALA         PTSUNNY   77  51  40 N7        30.04R
MOBILE         MOSUNNY   82  52  35 VRB3      30.05F
$$

!GAZ120>161-192200
...Southwest and South Central Georgia...

CITY           SKY/WX    TMP DP  RH WIND       PRES   REMARKS
THOMASVILLE    FAIR      75  57  53 NW5       30.04S
BAINBRIDGE     MOSUNNY   79  54  41 NW9       30.03S
MOODY AFB      MOSUNNY   77  53  42 W8        30.01S
VALDOSTA       MOSUNNY   76  53  44 VRB5      30.02F
MOULTRIE       PTSUNNY   73  54  49 NW5       30.04S
BLAKELY        PTSUNNY   79  54  41 NW7       30.04S
ALBANY         PTSUNNY   75  53  46 VRB7      30.05S
TIFTON         PTSUNNY   74  55  49 W7        30.02F
FITZGERALD     MOCLDY    74  56  53 N7        30.05S
CORDELE        FAIR      76  53  45 N8        30.04S
AMERICUS       MOCLDY    72  45  37 N8        30.05S
HOMERVILLE     CLOUDY    77  54  44 NW8       30.03S
$$

!GMZ750-755-770-775-192200
...Coastal and Buoy Obs...

STATION/POSITION TIME  TEMP    WIND        PRES    VSBY  WAVE
                       AIR SEA DIR/SP/G                  HT/PER
                 (UTC) (F)     (DEG/KT/KT) (MB)    (MI)  (FT/S)
KEATON BEACH     2100   67     270/  6/  7 1016.7F
CEDAR KEY        2100   65     230/  7/  8 1017.6S
C TOWER          2100   65     190/ 10/ 11 1018.4F
APALACHICOLA BUO 2050   69 71   40/  8/ 10 1017.7S         2/ 5
PANAMA CITY BUOY 2050   71 72              1018.5R         2/ 6
MOBILE BUOY      NOT AVBL
ORANGE BCH AL BU 2050   67 69  150/ 10/ 10 1017.8F         2/ 6
$$




USA.gov is the U.S. government's official web portal to all federal, state and local government web resources and services.